INTELSAT 26 (IS-26) (24732 NORAD) Tracking and Keplerian Element Data

This shows tracking and keplerian element data for the satellite.

Feedback or suggestion? Click here.




ElementValue
Catalog24732
NameINTELSAT 26 (IS-26)
Epoch Orbit9170
Epoch Day77.69359277
Epoch Year2022
RAAN39.3453
Inclination9.9331
Eccentricity0.0010409
Argument of Perigee285.2019
Mean Anonmoly274.2022
Mean Motion0.98909537
Decay Rate-2.13E-06
L11 24732U 97007A 22077.69359277 -.00000213 00000+0 00000+0 0 9992
L22 24732 9.9331 39.3453 0010409 285.2019 274.2022 0.98909537 91709



Live tracking and technical data element details for INTELSAT 26 (IS-26) (NORAD 24732). INTELSAT 26 (IS-26) can be tracked NOW for your location showing map with azimuth and elevation plus other details from your city location.







IsCatalogInMostPopularTable: catalog: 24732, numindb: 597
Update: records affected: 1



GetName: 24732 INTELSAT 26 (IS-26)

Hit Count: updated at: Fri, 16 May 2025 10:42:36 GMT